Total_Precipitation_Accumulation
0.05 0.07 0.09 0.08 0.06 0.03 0.02 0.00 0.00 0.00 0.00 0.00 0.00 0.00 0.00 0.00 0.00 0.00 0.00 0.00 0.00 0.00 0.00 0.00 0.00 0.00 0.00 0.00 0.00 0.00 0.00 0.00 0.00 0.00 0.00 0.00 0.00 0.00 0.00 0.00 0.00 0.00 0.00 0.00 0.00 0.00 0.00
0.04 0.05 0.06 0.13 0.16 0.14 0.09 0.04 0.02 0.01 0.01 0.00 0.00 0.00 0.00 0.00 0.00 0.00 0.00 0.00 0.00 0.00 0.00 0.00 0.00 0.00 0.00 0.00 0.00 0.00 0.00 0.00 0.00 0.00 0.00 0.00 0.00 0.00 0.00 0.00 0.00 0.00 0.00 0.00 0.00 0.00 0.00
0.02 0.04 0.05 0.06 0.11 0.19 0.23 0.25 0.22 0.16 0.09 0.04 0.03 0.02 0.01 0.00 0.00 0.00 0.00 0.00 0.00 0.00 0.00 0.00 0.00 0.00 0.00 0.00 0.00 0.00 0.00 0.00 0.00 0.00 0.00 0.00 0.00 0.00 0.00 0.00 0.00 0.00 0.00 0.00 0.00 0.00 0.00
0.02 0.04 0.06 0.07 0.06 0.09 0.12 0.17 0.24 0.33 0.32 0.24 0.14 0.07 0.04 0.03 0.03 0.02 0.01 0.00 0.00 0.00 0.00 0.00 0.00 0.00 0.00 0.00 0.00 0.00 0.00 0.00 0.00 0.00 0.00 0.00 0.00 0.00 0.00 0.00 0.00 0.00 0.00 0.00 0.00 0.00 0.00
0.01 0.02 0.04 0.08 0.10 0.10 0.10 0.12 0.15 0.20 0.25 0.31 0.36 0.31 0.24 0.17 0.12 0.07 0.03 0.02 0.01 0.00 0.00 0.00 0.00 0.00 0.00 0.00 0.00 0.00 0.00 0.00 0.00 0.00 0.00 0.00 0.00 0.00 0.00 0.00 0.00 0.00 0.00 0.00 0.00 0.00 0.00
0.01 0.02 0.02 0.02 0.04 0.09 0.14 0.16 0.13 0.10 0.12 0.20 0.30 0.30 0.28 0.26 0.22 0.15 0.07 0.03 0.01 0.00 0.00 0.00 0.00 0.00 0.00 0.00 0.00 0.00 0.00 0.00 0.00 0.00 0.00 0.00 0.00 0.00 0.00 0.00 0.00 0.00 0.00 0.00 0.00 0.00 0.00
0.01 0.01 0.02 0.03 0.03 0.02 0.04 0.09 0.11 0.10 0.09 0.10 0.13 0.17 0.18 0.18 0.16 0.13 0.08 0.02 0.01 0.01 0.00 0.00 0.00 0.00 0.00 0.00 0.00 0.00 0.00 0.00 0.00 0.00 0.00 0.00 0.00 0.00 0.00 0.00 0.00 0.00 0.00 0.00 0.00 0.00 0.00
0.00 0.00 0.00 0.00 0.01 0.02 0.03 0.04 0.03 0.04 0.07 0.10 0.13 0.15 0.16 0.14 0.11 0.13 0.11 0.07 0.08 0.04 0.02 0.00 0.00 0.00 0.00 0.00 0.00 0.00 0.00 0.00 0.00 0.00 0.00 0.00 0.00 0.00 0.00 0.00 0.00 0.00 0.00 0.00 0.00 0.00 0.00
0.00 0.00 0.00 0.00 0.00 0.01 0.01 0.03 0.04 0.02 0.01 0.03 0.11 0.19 0.26 0.23 0.20 0.20 0.21 0.17 0.10 0.07 0.05 0.00 0.00 0.00 0.00 0.00 0.00 0.00 0.00 0.00 0.00 0.00 0.00 0.00 0.00 0.00 0.00 0.00 0.00 0.00 0.00 0.00 0.00 0.00 0.00
0.00 0.00 0.00 0.00 0.00 0.00 0.00 0.01 0.01 0.01 0.01 0.02 0.04 0.16 0.27 0.25 0.16 0.16 0.20 0.14 0.15 0.12 0.10 0.00 0.00 0.00 0.00 0.00 0.00 0.00 0.00 0.00 0.00 0.00 0.00 0.00 0.00 0.00 0.00 0.00 0.00 0.00 0.00 0.00 0.00 0.00 0.00
0.00 0.00 0.00 0.00 0.00 0.00 0.00 0.00 0.00 0.00 0.01 0.02 0.03 0.02 0.10 0.12 0.05 0.04 0.03 0.05 0.20 0.15 0.21 0.00 0.00 0.00 0.00 0.00 0.00 0.00 0.00 0.00 0.00 0.00 0.00 0.00 0.00 0.00 0.00 0.00 0.00 0.00 0.00 0.00 0.00 0.00 0.00
0.01 0.01 0.00 0.00 0.00 0.00 0.00 0.00 0.00 0.00 0.01 0.01 0.02 0.02 0.02 0.04 0.02 0.04 0.13 0.15 0.16 0.21 0.18 0.00 0.00 0.00 0.00 0.00 0.00 0.00 0.00 0.00 0.00 0.00 0.00 0.00 0.00 0.00 0.00 0.00 0.00 0.00 0.00 0.00 0.00 0.00 0.00
0.01 0.00 0.00 0.01 0.00 0.00 0.00 0.00 0.00 0.00 0.01 0.01 0.01 0.01 0.01 0.01 0.01 0.03 0.24 0.16 0.22 0.20 0.03 0.00 0.00 0.00 0.00 0.00 0.00 0.00 0.00 0.00 0.00 0.01 0.00 0.00 0.00 0.00 0.00 0.00 0.00 0.00 0.00 0.00 0.00 0.00 0.00
0.00 0.00 0.00 0.00 0.01 0.00 0.00 0.00 0.00 0.00 0.00 0.02 0.02 0.03 0.01 0.00 0.00 0.04 0.48 0.53 0.24 0.02 0.00 0.00 0.00 0.00 0.00 0.00 0.00 0.00 0.01 0.00 0.01 0.01 0.01 0.01 0.00 0.00 0.00 0.00 0.00 0.00 0.00 0.00 0.00 0.00 0.00
0.00 0.00 0.00 0.00 0.00 0.00 0.00 0.00 0.00 0.00 0.01 0.02 0.06 0.04 0.01 0.00 0.00 0.02 0.39 0.69 0.19 0.00 0.00 0.00 0.01 0.00 0.00 0.00 0.00 0.00 0.01 0.01 0.00 0.00 0.03 0.05 0.01 0.00 0.00 0.00 0.00 0.00 0.00 0.00 0.00 0.00 0.00
0.01 0.01 0.00 0.00 0.00 0.00 0.00 0.00 0.00 0.00 0.02 0.04 0.08 0.07 0.01 0.00 0.01 0.07 0.36 0.41 0.05 0.00 0.00 0.00 0.02 0.00 0.00 0.00 0.00 0.00 0.00 0.00 0.00 0.00 0.00 0.01 0.03 0.00 0.00 0.00 0.00 0.00 0.00 0.00 0.01 0.01 0.00
0.03 0.02 0.01 0.01 0.01 0.00 0.00 0.00 0.00 0.00 0.04 0.11 0.24 0.33 0.05 0.00 0.08 0.14 0.36 0.21 0.01 0.00 0.00 0.00 0.00 0.00 0.00 0.00 0.00 0.00 0.00 0.00 0.00 0.00 0.00 0.00 0.04 0.02 0.00 0.00 0.00 0.00 0.00 0.00 0.00 0.00 0.00
0.01 0.01 0.01 0.01 0.01 0.00 0.00 0.00 0.00 0.00 0.03 0.21 0.54 0.55 0.08 0.03 0.10 0.04 0.12 0.03 0.00 0.00 0.00 0.00 0.00 0.00 0.00 0.00 0.00 0.00 0.00 0.00 0.00 0.00 0.00 0.00 0.00 0.00 0.00 0.00 0.00 0.00 0.00 0.00 0.02 0.01 0.00
0.01 0.01 0.01 0.00 0.00 0.00 0.00 0.00 0.00 0.00 0.03 0.21 0.65 0.51 0.14 0.15 0.17 0.06 0.01 0.00 0.00 0.00 0.00 0.00 0.00 0.00 0.00 0.00 0.00 0.00 0.00 0.00 0.00 0.00 0.00 0.00 0.06 0.03 0.01 0.00 0.00 0.00 0.00 0.00 0.00 0.00 0.00
0.01 0.01 0.00 0.00 0.00 0.00 0.00 0.00 0.00 0.00 0.02 0.16 0.68 0.59 0.25 0.47 0.31 0.03 0.00 0.00 0.00 0.00 0.00 0.00 0.00 0.00 0.00 0.00 0.00 0.00 0.00 0.00 0.00 0.00 0.00 0.00 0.01 0.06 0.03 0.00 0.00 0.00 0.00 0.00 0.00 0.00 0.00
0.00 0.01 0.01 0.00 0.00 0.00 0.00 0.00 0.00 0.00 0.03 0.17 0.65 0.62 0.31 0.50 0.49 0.20 0.01 0.00 0.00 0.00 0.00 0.01 0.01 0.00 0.00 0.00 0.00 0.00 0.00 0.00 0.00 0.00 0.00 0.00 0.00 0.00 0.01 0.01 0.00 0.00 0.00 0.00 0.00 0.00 0.00
0.01 0.01 0.01 0.01 0.00 0.00 0.00 0.00 0.00 0.01 0.08 0.21 0.55 0.45 0.30 0.23 0.13 0.15 0.08 0.02 0.00 0.00 0.00 0.00 0.01 0.00 0.00 0.00 0.00 0.00 0.00 0.00 0.00 0.00 0.00 0.00 0.00 0.00 0.00 0.00 0.00 0.00 0.00 0.00 0.00 0.00 0.00
0.03 0.03 0.02 0.01 0.01 0.00 0.00 0.01 0.01 0.03 0.13 0.18 0.43 0.31 0.44 0.36 0.18 0.15 0.18 0.05 0.00 0.01 0.01 0.00 0.00 0.02 0.02 0.01 0.04 0.02 0.01 0.02 0.02 0.00 0.00 0.00 0.00 0.00 0.02 0.00 0.01 0.04 0.00 0.00 0.00 0.00 0.00
0.09 0.07 0.06 0.03 0.02 0.01 0.01 0.01 0.02 0.04 0.09 0.08 0.23 0.33 0.28 0.32 0.31 0.33 0.14 0.02 0.00 0.00 0.01 0.02 0.03 0.02 0.00 0.02 0.06 0.06 0.04 0.02 0.02 0.02 0.00 0.00 0.00 0.02 0.00 0.01 0.10 0.03 0.00 0.00 0.00 0.00 0.00
0.09 0.09 0.10 0.10 0.06 0.03 0.02 0.02 0.03 0.05 0.08 0.11 0.04 0.15 0.51 0.31 0.18 0.25 0.21 0.15 0.04 0.01 0.02 0.04 0.06 0.14 0.11 0.16 0.12 0.15 0.20 0.17 0.05 0.01 0.00 0.00 0.02 0.06 0.09 0.05 0.02 0.00 0.00 0.00 0.00 0.00 0.00
0.08 0.07 0.08 0.09 0.09 0.07 0.05 0.03 0.03 0.04 0.06 0.11 0.08 0.04 0.20 0.37 0.12 0.16 0.16 0.10 0.09 0.06 0.02 0.02 0.13 0.23 0.43 0.42 0.25 0.13 0.10 0.11 0.09 0.02 0.00 0.02 0.02 0.05 0.07 0.07 0.04 0.00 0.00 0.00 0.00 0.00 0.00
0.07 0.07 0.06 0.07 0.07 0.07 0.07 0.05 0.04 0.04 0.06 0.08 0.07 0.06 0.17 0.32 0.08 0.10 0.26 0.17 0.05 0.02 0.01 0.01 0.06 0.10 0.26 0.59 0.57 0.38 0.16 0.03 0.03 0.01 0.01 0.04 0.10 0.11 0.06 0.06 0.01 0.00 0.00 0.00 0.00 0.00 0.00
0.07 0.07 0.06 0.06 0.06 0.05 0.06 0.06 0.06 0.05 0.04 0.09 0.05 0.07 0.10 0.25 0.08 0.10 0.22 0.22 0.17 0.08 0.01 0.01 0.09 0.07 0.32 0.33 0.42 0.45 0.29 0.12 0.04 0.01 0.01 0.02 0.10 0.13 0.13 0.15 0.02 0.00 0.00 0.00 0.00 0.00 0.00
0.06 0.07 0.06 0.05 0.04 0.04 0.05 0.06 0.07 0.04 0.04 0.10 0.06 0.08 0.08 0.16 0.15 0.15 0.26 0.20 0.17 0.17 0.09 0.02 0.02 0.01 0.06 0.14 0.12 0.09 0.08 0.16 0.08 0.01 0.01 0.02 0.01 0.01 0.02 0.04 0.00 0.00 0.00 0.00 0.00 0.00 0.00